TimePST,TemperatureF,Dew PointF,Humidity,Sea Level PressureIn,VisibilityMPH,Wind Direction,Wind SpeedMPH,Gust SpeedMPH,PrecipitationIn,Events,Conditions,WindDirDegrees,DateUTC
12:15 AM,32.0,6.8,35,30.27,10.0,ESE,9.2,-,N/A,,Clear,120,2013-12-30 08:15:00
12:35 AM,32.0,6.8,35,30.27,10.0,ESE,9.2,-,N/A,,Clear,110,2013-12-30 08:35:00
12:55 AM,32.0,6.8,35,30.27,10.0,SE,12.7,-,N/A,,Clear,130,2013-12-30 08:55:00
1:15 AM,32.0,6.8,35,30.27,10.0,SE,10.4,-,N/A,,Clear,130,2013-12-30 09:15:00
1:35 AM,32.0,6.8,35,30.28,10.0,SE,12.7,-,N/A,,Clear,130,2013-12-30 09:35:00
1:55 AM,32.0,5.0,32,30.27,10.0,SE,11.5,-,N/A,,Clear,130,2013-12-30 09:55:00
2:15 AM,32.0,5.0,32,30.28,10.0,SE,12.7,-,N/A,,Clear,130,2013-12-30 10:15:00
2:35 AM,32.0,5.0,32,30.27,10.0,SE,11.5,-,N/A,,Clear,130,2013-12-30 10:35:00
2:55 AM,32.0,5.0,32,30.28,10.0,SE,13.8,-,N/A,,Clear,130,2013-12-30 10:55:00
3:15 AM,30.2,5.0,34,30.27,10.0,SE,10.4,-,N/A,,Clear,130,2013-12-30 11:15:00
3:35 AM,32.0,5.0,32,30.28,10.0,East,3.5,-,N/A,,Clear,100,2013-12-30 11:35:00
3:55 AM,32.0,5.0,32,30.28,10.0,ESE,4.6,-,N/A,,Clear,110,2013-12-30 11:55:00
4:15 AM,30.2,5.0,34,30.28,10.0,ESE,5.8,-,N/A,,Clear,120,2013-12-30 12:15:00
4:35 AM,26.6,6.8,43,30.28,10.0,Calm,Calm,-,N/A,,Clear,0,2013-12-30 12:35:00
4:55 AM,28.4,5.0,37,30.28,10.0,Calm,Calm,-,N/A,,Clear,0,2013-12-30 12:55:00
5:15 AM,28.4,6.8,40,30.28,10.0,Calm,Calm,-,N/A,,Clear,0,2013-12-30 13:15:00
5:35 AM,28.4,5.0,37,30.29,10.0,Calm,Calm,-,N/A,,Clear,0,2013-12-30 13:35:00
5:55 AM,26.6,6.8,43,30.29,10.0,Calm,Calm,-,N/A,,Clear,0,2013-12-30 13:55:00
6:15 AM,26.6,6.8,43,30.29,10.0,Calm,Calm,-,N/A,,Clear,0,2013-12-30 14:15:00
6:35 AM,26.6,6.8,43,30.29,10.0,Calm,Calm,-,N/A,,Clear,0,2013-12-30 14:35:00
6:55 AM,26.6,6.8,43,30.30,10.0,Calm,Calm,-,N/A,,Clear,0,2013-12-30 14:55:00
7:15 AM,28.4,5.0,37,30.30,10.0,East,3.5,-,N/A,,Clear,90,2013-12-30 15:15:00
7:35 AM,28.4,6.8,40,30.30,10.0,Calm,Calm,-,N/A,,Clear,0,2013-12-30 15:35:00
7:55 AM,30.2,8.6,40,30.31,10.0,Calm,Calm,-,N/A,,Clear,0,2013-12-30 15:55:00
8:15 AM,33.8,6.8,32,30.31,10.0,Calm,Calm,-,N/A,,Clear,0,2013-12-30 16:15:00
8:35 AM,37.4,8.6,30,30.31,10.0,Calm,Calm,-,N/A,,Clear,0,2013-12-30 16:35:00
8:55 AM,41.0,8.6,26,30.31,8.0,Calm,Calm,-,N/A,,Clear,0,2013-12-30 16:55:00
9:15 AM,44.6,8.6,23,30.32,9.0,Calm,Calm,-,N/A,,Clear,0,2013-12-30 17:15:00
9:35 AM,51.8,8.6,18,30.32,6.0,SE,8.1,-,N/A,,Haze,130,2013-12-30 17:35:00
9:55 AM,55.4,3.2,12,30.32,8.0,ESE,9.2,-,N/A,,Clear,120,2013-12-30 17:55:00
10:15 AM,57.2,1.4,10,30.32,8.0,ESE,8.1,-,N/A,,Clear,120,2013-12-30 18:15:00
10:35 AM,59.0,1.4,10,30.32,9.0,SE,10.4,-,N/A,,Clear,130,2013-12-30 18:35:00
10:55 AM,59.0,-0.4,9,30.31,9.0,ESE,10.4,-,N/A,,Clear,120,2013-12-30 18:55:00
11:15 AM,60.8,-0.4,8,30.30,8.0,ESE,6.9,-,N/A,,Clear,120,2013-12-30 19:15:00
11:35 AM,60.8,-0.4,8,30.29,8.0,SE,6.9,-,N/A,,Clear,130,2013-12-30 19:35:00
11:55 AM,62.6,-0.4,8,30.29,9.0,ESE,4.6,-,N/A,,Clear,110,2013-12-30 19:55:00
12:15 PM,62.6,-0.4,8,30.27,10.0,East,3.5,-,N/A,,Clear,100,2013-12-30 20:15:00
12:35 PM,64.4,-0.4,7,30.26,9.0,Calm,Calm,-,N/A,,Clear,0,2013-12-30 20:35:00
12:55 PM,64.4,-0.4,7,30.25,10.0,NW,11.5,-,N/A,,Clear,310,2013-12-30 20:55:00
1:15 PM,64.4,-0.4,7,30.25,9.0,NW,11.5,-,N/A,,Clear,320,2013-12-30 21:15:00
1:35 PM,64.4,-0.4,7,30.25,9.0,NW,13.8,18.4,N/A,,Clear,310,2013-12-30 21:35:00
1:55 PM,62.6,-0.4,8,30.25,10.0,NW,17.3,20.7,N/A,,Clear,310,2013-12-30 21:55:00
2:15 PM,62.6,-0.4,8,30.25,9.0,NW,16.1,20.7,N/A,,Clear,310,2013-12-30 22:15:00
2:35 PM,60.8,1.4,9,30.25,9.0,NW,12.7,-,N/A,,Clear,320,2013-12-30 22:35:00
2:55 PM,59.0,3.2,11,30.26,10.0,WNW,12.7,-,N/A,,Clear,300,2013-12-30 22:55:00
3:15 PM,57.2,6.8,13,30.26,10.0,WNW,12.7,-,N/A,,Clear,300,2013-12-30 23:15:00
3:35 PM,57.2,6.8,13,30.26,10.0,WNW,10.4,-,N/A,,Clear,300,2013-12-30 23:35:00
3:55 PM,55.4,8.6,15,30.26,9.0,NW,9.2,-,N/A,,Clear,310,2013-12-30 23:55:00
4:15 PM,55.4,8.6,15,30.26,9.0,NW,10.4,-,N/A,,Clear,320,2013-12-31 00:15:00
4:35 PM,53.6,10.4,18,30.26,9.0,NW,9.2,-,N/A,,Clear,320,2013-12-31 00:35:00
4:55 PM,50.0,10.4,20,30.27,9.0,NW,9.2,-,N/A,,Clear,320,2013-12-31 00:55:00
5:15 PM,48.2,10.4,22,30.27,10.0,NW,9.2,-,N/A,,Clear,310,2013-12-31 01:15:00
5:35 PM,48.2,8.6,20,30.28,10.0,West,6.9,-,N/A,,Clear,270,2013-12-31 01:35:00
5:55 PM,44.6,8.6,23,30.28,10.0,WNW,5.8,-,N/A,,Clear,290,2013-12-31 01:55:00
6:15 PM,44.6,6.8,21,30.28,10.0,West,8.1,-,N/A,,Clear,280,2013-12-31 02:15:00
6:35 PM,46.4,5.0,18,30.29,10.0,West,9.2,-,N/A,,Clear,260,2013-12-31 02:35:00
6:55 PM,48.2,3.2,16,30.29,10.0,West,9.2,-,N/A,,Clear,260,2013-12-31 02:55:00
7:15 PM,44.6,3.2,18,30.29,10.0,West,6.9,-,N/A,,Clear,270,2013-12-31 03:15:00
7:35 PM,44.6,3.2,18,30.29,10.0,WNW,8.1,-,N/A,,Clear,290,2013-12-31 03:35:00
7:55 PM,44.6,5.0,20,30.30,10.0,West,8.1,-,N/A,,Clear,280,2013-12-31 03:55:00
8:15 PM,44.6,5.0,20,30.30,10.0,WNW,6.9,-,N/A,,Clear,290,2013-12-31 04:15:00
8:35 PM,42.8,6.8,23,30.30,10.0,WNW,4.6,-,N/A,,Clear,300,2013-12-31 04:35:00
8:55 PM,42.8,6.8,23,30.30,9.0,WNW,6.9,-,N/A,,Clear,290,2013-12-31 04:55:00
9:15 PM,42.8,6.8,23,30.30,10.0,West,8.1,-,N/A,,Clear,280,2013-12-31 05:15:00
9:35 PM,44.6,6.8,21,30.30,10.0,West,5.8,-,N/A,,Clear,280,2013-12-31 05:35:00
9:55 PM,44.6,6.8,21,30.30,10.0,Calm,Calm,-,N/A,,Clear,0,2013-12-31 05:55:00
10:15 PM,44.6,8.6,23,30.30,10.0,North,3.5,-,N/A,,Clear,360,2013-12-31 06:15:00
10:35 PM,46.4,6.8,20,30.30,10.0,NW,3.5,-,N/A,,Clear,320,2013-12-31 06:35:00
10:55 PM,46.4,8.6,22,30.29,10.0,NNW,4.6,-,N/A,,Clear,340,2013-12-31 06:55:00
11:15 PM,42.8,8.6,25,30.29,10.0,West,4.6,-,N/A,,Clear,260,2013-12-31 07:15:00
11:35 PM,44.6,8.6,23,30.29,10.0,West,3.5,-,N/A,,Clear,270,2013-12-31 07:35:00
11:55 PM,44.6,8.6,23,30.29,10.0,West,3.5,-,N/A,,Clear,270,2013-12-31 07:55:00